Year,Month,Day,Hour,Minute,Value (Times are PST for temperature in C)
2014,07,02,00,00,19.80
2014,07,02,00,01,19.80
2014,07,02,00,02,19.80
2014,07,02,00,03,19.70
2014,07,02,00,04,19.60
2014,07,02,00,05,19.50
2014,07,02,00,06,19.40
2014,07,02,00,07,19.40
2014,07,02,00,08,19.40
2014,07,02,00,09,19.40
2014,07,02,00,10,19.40
2014,07,02,00,11,19.40
2014,07,02,00,12,19.40
2014,07,02,00,13,19.40
2014,07,02,00,14,19.40
2014,07,02,00,15,19.40
2014,07,02,00,16,19.40
2014,07,02,00,17,19.40
2014,07,02,00,18,19.40
2014,07,02,00,19,19.30
2014,07,02,00,20,19.30
2014,07,02,00,21,19.30
2014,07,02,00,22,19.30
2014,07,02,00,23,19.20
2014,07,02,00,24,19.20
2014,07,02,00,25,19.10
2014,07,02,00,26,19.10
2014,07,02,00,27,19.10
2014,07,02,00,28,19.10
2014,07,02,00,29,18.90
2014,07,02,00,30,18.90
2014,07,02,00,31,18.90
2014,07,02,00,32,18.90
2014,07,02,00,33,18.90
2014,07,02,00,34,18.90
2014,07,02,00,35,18.90
2014,07,02,00,36,18.80
2014,07,02,00,37,18.80
2014,07,02,00,38,18.80
2014,07,02,00,39,18.80
2014,07,02,00,40,18.80
2014,07,02,00,41,18.70
2014,07,02,00,42,18.70
2014,07,02,00,43,18.70
2014,07,02,00,44,18.60
2014,07,02,00,45,18.50
2014,07,02,00,46,18.40
2014,07,02,00,47,18.30
2014,07,02,00,48,18.20
2014,07,02,00,49,18.00
2014,07,02,00,50,17.90
2014,07,02,00,51,17.80
2014,07,02,00,52,17.70
2014,07,02,00,53,17.60
2014,07,02,00,54,17.50
2014,07,02,00,55,17.40
2014,07,02,00,56,17.30
2014,07,02,00,57,17.30
2014,07,02,00,58,17.30
2014,07,02,00,59,17.20
2014,07,02,01,00,17.20
2014,07,02,01,01,17.20
2014,07,02,01,02,17.20
2014,07,02,01,03,17.20
2014,07,02,01,04,17.20
2014,07,02,01,05,17.20
2014,07,02,01,06,17.20
2014,07,02,01,07,17.20
2014,07,02,01,08,17.20
2014,07,02,01,09,17.10
2014,07,02,01,10,17.10
2014,07,02,01,11,17.00
2014,07,02,01,12,17.00
2014,07,02,01,13,17.00
2014,07,02,01,14,17.00
2014,07,02,01,15,17.00
2014,07,02,01,16,17.00
2014,07,02,01,17,17.00
2014,07,02,01,18,17.00
2014,07,02,01,19,17.00
2014,07,02,01,20,17.10
2014,07,02,01,21,17.20
2014,07,02,01,22,17.20
2014,07,02,01,23,17.30
2014,07,02,01,24,17.30
2014,07,02,01,25,17.30
2014,07,02,01,26,17.30
2014,07,02,01,27,17.30
2014,07,02,01,28,17.30
2014,07,02,01,29,17.30
2014,07,02,01,30,17.30
2014,07,02,01,31,17.30
2014,07,02,01,32,17.30
2014,07,02,01,33,17.30
2014,07,02,01,34,17.30
2014,07,02,01,35,17.30
2014,07,02,01,36,17.30
2014,07,02,01,37,17.20
2014,07,02,01,38,17.20
2014,07,02,01,39,17.20
2014,07,02,01,40,17.20
2014,07,02,01,41,17.10
2014,07,02,01,42,17.10
2014,07,02,01,43,17.10
2014,07,02,01,44,17.10
2014,07,02,01,45,17.10
2014,07,02,01,46,17.10
2014,07,02,01,47,17.10
2014,07,02,01,48,17.00
2014,07,02,01,49,17.00
2014,07,02,01,50,17.00
2014,07,02,01,51,17.00
2014,07,02,01,52,17.00
2014,07,02,01,53,17.00
2014,07,02,01,54,17.00
2014,07,02,01,55,17.00
2014,07,02,01,56,17.00
2014,07,02,01,57,17.00
2014,07,02,01,58,17.10
2014,07,02,01,59,17.10
2014,07,02,02,00,17.20
2014,07,02,02,01,17.20
2014,07,02,02,02,17.30
2014,07,02,02,03,17.30
2014,07,02,02,04,17.50
2014,07,02,02,05,17.60
2014,07,02,02,06,17.60
2014,07,02,02,07,17.70
2014,07,02,02,08,17.80
2014,07,02,02,09,17.90
2014,07,02,02,10,17.90
2014,07,02,02,11,18.00
2014,07,02,02,12,18.10
2014,07,02,02,13,18.10
2014,07,02,02,14,18.20
2014,07,02,02,15,18.20
2014,07,02,02,16,18.20
2014,07,02,02,17,18.20
2014,07,02,02,18,18.20
2014,07,02,02,19,18.20
2014,07,02,02,20,18.20
2014,07,02,02,21,18.10
2014,07,02,02,22,18.10
2014,07,02,02,23,18.10
2014,07,02,02,24,18.10
2014,07,02,02,25,17.90
2014,07,02,02,26,17.90
2014,07,02,02,27,17.90
2014,07,02,02,28,17.90
2014,07,02,02,29,17.90
2014,07,02,02,30,17.90
2014,07,02,02,31,17.90
2014,07,02,02,32,17.90
2014,07,02,02,33,17.80
2014,07,02,02,34,17.70
2014,07,02,02,35,17.70
2014,07,02,02,36,17.70
2014,07,02,02,37,17.60
2014,07,02,02,38,17.60
2014,07,02,02,39,17.60
2014,07,02,02,40,17.50
2014,07,02,02,41,17.50
2014,07,02,02,42,17.50
2014,07,02,02,43,17.50
2014,07,02,02,44,17.50
2014,07,02,02,45,17.50
2014,07,02,02,46,17.50
2014,07,02,02,47,17.50
2014,07,02,02,48,17.60
2014,07,02,02,49,17.60
2014,07,02,02,50,17.60
2014,07,02,02,51,17.70
2014,07,02,02,52,17.70
2014,07,02,02,53,17.80
2014,07,02,02,54,17.90
2014,07,02,02,55,17.90
2014,07,02,02,56,18.00
2014,07,02,02,57,18.10
2014,07,02,02,58,18.10
2014,07,02,02,59,18.20
2014,07,02,03,00,18.20
2014,07,02,03,01,18.20
2014,07,02,03,02,18.20
2014,07,02,03,03,18.20
2014,07,02,03,04,18.20
2014,07,02,03,05,18.30
2014,07,02,03,06,18.30
2014,07,02,03,07,18.30
2014,07,02,03,08,18.20
2014,07,02,03,09,18.20
2014,07,02,03,10,18.10
2014,07,02,03,11,17.90
2014,07,02,03,12,17.80
2014,07,02,03,13,17.70
2014,07,02,03,14,17.60
2014,07,02,03,15,17.50
2014,07,02,03,16,17.50
2014,07,02,03,17,17.40
2014,07,02,03,18,17.30
2014,07,02,03,19,17.30
2014,07,02,03,20,17.30
2014,07,02,03,21,17.20
2014,07,02,03,22,17.10
2014,07,02,03,23,17.00
2014,07,02,03,24,16.90
2014,07,02,03,25,16.80
2014,07,02,03,26,16.80
2014,07,02,03,27,16.70
2014,07,02,03,28,16.70
2014,07,02,03,29,16.60
2014,07,02,03,30,16.60
2014,07,02,03,31,16.60
2014,07,02,03,32,16.60
2014,07,02,03,33,16.60
2014,07,02,03,34,16.60
2014,07,02,03,35,16.60
2014,07,02,03,36,16.70
2014,07,02,03,37,16.70
2014,07,02,03,38,16.70
2014,07,02,03,39,16.70
2014,07,02,03,40,16.60
2014,07,02,03,41,16.60
2014,07,02,03,42,16.60
2014,07,02,03,43,16.60
2014,07,02,03,44,16.60
2014,07,02,03,45,16.70
2014,07,02,03,46,16.70
2014,07,02,03,47,16.70
2014,07,02,03,48,16.80
2014,07,02,03,49,16.90
2014,07,02,03,50,17.00
2014,07,02,03,51,17.00
2014,07,02,03,52,17.10
2014,07,02,03,53,17.20
2014,07,02,03,54,17.30
2014,07,02,03,55,17.40
2014,07,02,03,56,17.50
2014,07,02,03,57,17.60
2014,07,02,03,58,17.70
2014,07,02,03,59,17.70
2014,07,02,04,00,17.80
2014,07,02,04,01,17.90
2014,07,02,04,02,17.90
2014,07,02,04,03,18.00
2014,07,02,04,04,18.10
2014,07,02,04,05,18.10
2014,07,02,04,06,18.20
2014,07,02,04,07,18.20
2014,07,02,04,08,18.20
2014,07,02,04,09,18.20
2014,07,02,04,10,18.20
2014,07,02,04,11,18.20
2014,07,02,04,12,18.00
2014,07,02,04,13,17.90
2014,07,02,04,14,17.80
2014,07,02,04,15,17.60
2014,07,02,04,16,17.50
2014,07,02,04,17,17.50
2014,07,02,04,18,17.40
2014,07,02,04,19,17.30
2014,07,02,04,20,17.30
2014,07,02,04,21,17.20
2014,07,02,04,22,17.10
2014,07,02,04,23,17.10
2014,07,02,04,24,17.00
2014,07,02,04,25,17.00
2014,07,02,04,26,17.00
2014,07,02,04,27,17.00
2014,07,02,04,28,17.10
2014,07,02,04,29,17.20
2014,07,02,04,30,17.30
2014,07,02,04,31,17.40
2014,07,02,04,32,17.50
2014,07,02,04,33,17.50
2014,07,02,04,34,17.60
2014,07,02,04,35,17.70
2014,07,02,04,36,17.70
2014,07,02,04,37,17.70
2014,07,02,04,38,17.80
2014,07,02,04,39,17.80
2014,07,02,04,40,17.80
2014,07,02,04,41,17.80
2014,07,02,04,42,17.90
2014,07,02,04,43,17.90
2014,07,02,04,44,17.90
2014,07,02,04,45,17.90
2014,07,02,04,46,17.90
2014,07,02,04,47,17.90
2014,07,02,04,48,17.90
2014,07,02,04,49,17.90
2014,07,02,04,50,18.00
2014,07,02,04,51,18.10
2014,07,02,04,52,18.10
2014,07,02,04,53,18.20
2014,07,02,04,54,18.20
2014,07,02,04,55,18.20
2014,07,02,04,56,18.20
2014,07,02,04,57,18.30
2014,07,02,04,58,18.30
2014,07,02,04,59,18.30
2014,07,02,05,00,18.30
2014,07,02,05,01,18.30
2014,07,02,05,02,18.20
2014,07,02,05,03,18.20
2014,07,02,05,04,18.20
2014,07,02,05,05,18.20
2014,07,02,05,06,18.20
2014,07,02,05,07,18.20
2014,07,02,05,08,18.20
2014,07,02,05,09,18.30
2014,07,02,05,10,18.30
2014,07,02,05,11,18.30
2014,07,02,05,12,18.30
2014,07,02,05,13,18.30
2014,07,02,05,14,18.30
2014,07,02,05,15,18.30
2014,07,02,05,16,18.30
2014,07,02,05,17,18.30
2014,07,02,05,18,18.40
2014,07,02,05,19,18.40
2014,07,02,05,20,18.40
2014,07,02,05,21,18.50
2014,07,02,05,22,18.50
2014,07,02,05,23,18.60
2014,07,02,05,24,18.60
2014,07,02,05,25,18.70
2014,07,02,05,26,18.70
2014,07,02,05,27,18.80
2014,07,02,05,28,18.80
2014,07,02,05,29,18.80
2014,07,02,05,30,18.90
2014,07,02,05,31,18.90
2014,07,02,05,32,18.90
2014,07,02,05,33,18.90
2014,07,02,05,34,18.90
2014,07,02,05,35,18.90
2014,07,02,05,36,18.90
2014,07,02,05,37,18.90
2014,07,02,05,38,18.90
2014,07,02,05,39,18.90
2014,07,02,05,40,19.00
2014,07,02,05,41,19.10
2014,07,02,05,42,19.10
2014,07,02,05,43,19.10
2014,07,02,05,44,19.10
2014,07,02,05,45,19.10
2014,07,02,05,46,19.10
2014,07,02,05,47,19.10
2014,07,02,05,48,19.20
2014,07,02,05,49,19.20
2014,07,02,05,50,19.20
2014,07,02,05,51,19.20
2014,07,02,05,52,19.30
2014,07,02,05,53,19.30
2014,07,02,05,54,19.30
2014,07,02,05,55,19.40
2014,07,02,05,56,19.40
2014,07,02,05,57,19.50
2014,07,02,05,58,19.50
2014,07,02,05,59,19.60
2014,07,02,06,00,19.70
2014,07,02,06,01,19.70
2014,07,02,06,02,19.70
2014,07,02,06,03,19.80
2014,07,02,06,04,19.80
2014,07,02,06,05,19.80
2014,07,02,06,06,19.80
2014,07,02,06,07,19.90
2014,07,02,06,08,19.90
2014,07,02,06,09,19.90
2014,07,02,06,10,20.00
2014,07,02,06,11,20.10
2014,07,02,06,12,20.10
2014,07,02,06,13,20.20
2014,07,02,06,14,20.20
2014,07,02,06,15,20.20
2014,07,02,06,16,20.20
2014,07,02,06,17,20.30
2014,07,02,06,18,20.30
2014,07,02,06,19,20.30
2014,07,02,06,20,20.30
2014,07,02,06,21,20.40
2014,07,02,06,22,20.40
2014,07,02,06,23,20.40
2014,07,02,06,24,20.40
2014,07,02,06,25,20.40
2014,07,02,06,26,20.40
2014,07,02,06,27,20.50
2014,07,02,06,28,20.50
2014,07,02,06,29,20.50
2014,07,02,06,30,20.50
2014,07,02,06,31,20.60
2014,07,02,06,32,20.60
2014,07,02,06,33,20.60
2014,07,02,06,34,20.60
2014,07,02,06,35,20.60
2014,07,02,06,36,20.60
2014,07,02,06,37,20.60
2014,07,02,06,38,20.60
2014,07,02,06,39,20.60
2014,07,02,06,40,20.60
2014,07,02,06,41,20.50
2014,07,02,06,42,20.50
2014,07,02,06,43,20.50
2014,07,02,06,44,20.50
2014,07,02,06,45,20.40
2014,07,02,06,46,20.40
2014,07,02,06,47,20.20
2014,07,02,06,48,19.90
2014,07,02,06,49,19.70
2014,07,02,06,50,19.40
2014,07,02,06,51,19.20
2014,07,02,06,52,19.00
2014,07,02,06,53,18.80
2014,07,02,06,54,18.70
2014,07,02,06,55,18.60
2014,07,02,06,56,18.50
2014,07,02,06,57,18.30
2014,07,02,06,58,18.10
2014,07,02,06,59,17.90
2014,07,02,07,00,17.80
2014,07,02,07,01,17.70
2014,07,02,07,02,17.50
2014,07,02,07,03,17.40
2014,07,02,07,04,17.40
2014,07,02,07,05,17.30
2014,07,02,07,06,17.30
2014,07,02,07,07,17.30
2014,07,02,07,08,17.30
2014,07,02,07,09,17.30
2014,07,02,07,10,17.20
2014,07,02,07,11,17.20
2014,07,02,07,12,17.10
2014,07,02,07,13,17.10
2014,07,02,07,14,17.00
2014,07,02,07,15,17.00
2014,07,02,07,16,17.00
2014,07,02,07,17,17.00
2014,07,02,07,18,17.00
2014,07,02,07,19,17.00
2014,07,02,07,20,16.90
2014,07,02,07,21,16.90
2014,07,02,07,22,16.90
2014,07,02,07,23,16.80
2014,07,02,07,24,16.70
2014,07,02,07,25,16.70
2014,07,02,07,26,16.70
2014,07,02,07,27,16.70
2014,07,02,07,28,16.70
2014,07,02,07,29,16.70
2014,07,02,07,30,16.70
2014,07,02,07,31,16.70
2014,07,02,07,32,16.70
2014,07,02,07,33,16.70
2014,07,02,07,34,16.70
2014,07,02,07,35,16.70
2014,07,02,07,36,16.70
2014,07,02,07,37,16.60
2014,07,02,07,38,16.60
2014,07,02,07,39,16.60
2014,07,02,07,40,16.60
2014,07,02,07,41,16.60
2014,07,02,07,42,16.60
2014,07,02,07,43,16.60
2014,07,02,07,44,16.70
2014,07,02,07,45,16.70
2014,07,02,07,46,16.70
2014,07,02,07,47,16.70
2014,07,02,07,48,16.70
2014,07,02,07,49,16.70
2014,07,02,07,50,16.70
2014,07,02,07,51,16.70
2014,07,02,07,52,16.70
2014,07,02,07,53,16.60
2014,07,02,07,54,16.50
2014,07,02,07,55,16.40
2014,07,02,07,56,16.40
2014,07,02,07,57,16.40
2014,07,02,07,58,16.40
2014,07,02,07,59,16.30
2014,07,02,08,00,16.30
2014,07,02,08,01,16.30
2014,07,02,08,02,16.30
2014,07,02,08,03,16.30
2014,07,02,08,04,16.30
2014,07,02,08,05,16.30
2014,07,02,08,06,16.30
2014,07,02,08,07,16.30
2014,07,02,08,08,16.30
2014,07,02,08,09,16.40
2014,07,02,08,10,16.40
2014,07,02,08,11,16.40
2014,07,02,08,12,16.40
2014,07,02,08,13,16.40
2014,07,02,08,14,16.40
2014,07,02,08,15,16.40
2014,07,02,08,16,16.40
2014,07,02,08,17,16.30
2014,07,02,08,18,16.30
2014,07,02,08,19,16.30
2014,07,02,08,20,16.30
2014,07,02,08,21,16.40
2014,07,02,08,22,16.40
2014,07,02,08,23,16.40
2014,07,02,08,24,16.50
2014,07,02,08,25,16.60
2014,07,02,08,26,16.60
2014,07,02,08,27,16.70
2014,07,02,08,28,16.70
2014,07,02,08,29,16.70
2014,07,02,08,30,16.80
2014,07,02,08,31,16.90
2014,07,02,08,32,16.90
2014,07,02,08,33,17.00
2014,07,02,08,34,17.00
2014,07,02,08,35,17.10
2014,07,02,08,36,17.20
2014,07,02,08,37,17.30
2014,07,02,08,38,17.40
2014,07,02,08,39,17.50
2014,07,02,08,40,17.60
2014,07,02,08,41,17.70
2014,07,02,08,42,17.70
2014,07,02,08,43,17.80
2014,07,02,08,44,17.90
2014,07,02,08,45,17.90
2014,07,02,08,46,17.90
2014,07,02,08,47,17.90
2014,07,02,08,48,18.00
2014,07,02,08,49,18.10
2014,07,02,08,50,18.10
2014,07,02,08,51,18.20
2014,07,02,08,52,18.20
2014,07,02,08,53,18.30
2014,07,02,08,54,18.40
2014,07,02,08,55,18.40
2014,07,02,08,56,18.50
2014,07,02,08,57,18.60
2014,07,02,08,58,18.70
2014,07,02,08,59,18.70
2014,07,02,09,00,18.80
2014,07,02,09,01,18.90
2014,07,02,09,02,18.90
2014,07,02,09,03,18.80
2014,07,02,09,04,18.80
2014,07,02,09,05,18.80
2014,07,02,09,06,18.90
2014,07,02,09,07,18.90
2014,07,02,09,08,18.90
2014,07,02,09,09,19.00
2014,07,02,09,10,19.10
2014,07,02,09,11,19.10
2014,07,02,09,12,19.00
2014,07,02,09,13,18.80
2014,07,02,09,14,18.70
2014,07,02,09,15,18.60
2014,07,02,09,16,18.50
2014,07,02,09,17,18.50
2014,07,02,09,18,18.60
2014,07,02,09,19,18.60
2014,07,02,09,20,18.60
2014,07,02,09,21,18.80
2014,07,02,09,22,18.90
2014,07,02,09,23,18.90
2014,07,02,09,24,19.00
2014,07,02,09,25,19.10
2014,07,02,09,26,19.20
2014,07,02,09,27,19.30
2014,07,02,09,28,19.30
2014,07,02,09,29,19.40
2014,07,02,09,30,19.40
2014,07,02,09,31,19.50
2014,07,02,09,32,19.60
2014,07,02,09,33,19.70
2014,07,02,09,34,19.80
2014,07,02,09,35,19.90
2014,07,02,09,36,19.90
2014,07,02,09,37,20.10
2014,07,02,09,38,20.10
2014,07,02,09,39,20.20
2014,07,02,09,40,20.40
2014,07,02,09,41,20.40
2014,07,02,09,42,20.40
2014,07,02,09,43,20.50
2014,07,02,09,44,20.60
2014,07,02,09,45,20.70
2014,07,02,09,46,20.80
2014,07,02,09,47,20.80
2014,07,02,09,48,20.90
2014,07,02,09,49,20.90
2014,07,02,09,50,21.00
2014,07,02,09,51,21.00
2014,07,02,09,52,21.10
2014,07,02,09,53,21.10
2014,07,02,09,54,21.10
2014,07,02,09,55,21.10
2014,07,02,09,56,21.10
2014,07,02,09,57,21.10
2014,07,02,09,58,21.10
2014,07,02,09,59,21.10
2014,07,02,10,00,21.10
2014,07,02,10,01,21.00
2014,07,02,10,02,21.00
2014,07,02,10,03,21.00
2014,07,02,10,04,21.10
2014,07,02,10,05,21.10
2014,07,02,10,06,21.10
2014,07,02,10,07,21.00
2014,07,02,10,08,20.90
2014,07,02,10,09,20.90
2014,07,02,10,10,20.80
2014,07,02,10,11,20.90
2014,07,02,10,12,20.90
2014,07,02,10,13,21.00
2014,07,02,10,14,21.00
2014,07,02,10,15,21.00
2014,07,02,10,16,21.10
2014,07,02,10,17,21.10
2014,07,02,10,18,21.10
2014,07,02,10,19,21.20
2014,07,02,10,20,21.10
2014,07,02,10,21,21.10
2014,07,02,10,22,21.20
2014,07,02,10,23,21.30
2014,07,02,10,24,21.30
2014,07,02,10,25,21.30
2014,07,02,10,26,21.30
2014,07,02,10,27,21.30
2014,07,02,10,28,21.30
2014,07,02,10,29,21.30
2014,07,02,10,30,21.30
2014,07,02,10,31,21.30
2014,07,02,10,32,21.30
2014,07,02,10,33,21.40
2014,07,02,10,34,21.40
2014,07,02,10,35,21.40
2014,07,02,10,36,21.40
2014,07,02,10,37,21.40
2014,07,02,10,38,21.30
2014,07,02,10,39,21.30
2014,07,02,10,40,21.30
2014,07,02,10,41,21.20
2014,07,02,10,42,21.20
2014,07,02,10,43,21.20
2014,07,02,10,44,21.20
2014,07,02,10,45,21.30
2014,07,02,10,46,21.30
2014,07,02,10,47,21.20
2014,07,02,10,48,21.20
2014,07,02,10,49,21.20
2014,07,02,10,50,21.20
2014,07,02,10,51,21.20
2014,07,02,10,52,21.10
2014,07,02,10,53,20.80
2014,07,02,10,54,20.40
2014,07,02,10,55,20.20
2014,07,02,10,56,20.20
2014,07,02,10,57,20.20
2014,07,02,10,58,20.20
2014,07,02,10,59,20.30
2014,07,02,11,00,20.30
2014,07,02,11,01,20.30
2014,07,02,11,02,20.40
2014,07,02,11,03,20.50
2014,07,02,11,04,20.60
2014,07,02,11,05,20.70
2014,07,02,11,06,20.90
2014,07,02,11,07,21.00
2014,07,02,11,08,21.10
2014,07,02,11,09,21.30
2014,07,02,11,10,21.40
2014,07,02,11,11,21.50
2014,07,02,11,12,21.60
2014,07,02,11,13,21.70
2014,07,02,11,14,21.90
2014,07,02,11,15,21.90
2014,07,02,11,16,21.90
2014,07,02,11,17,21.90
2014,07,02,11,18,21.90
2014,07,02,11,19,21.90
2014,07,02,11,20,21.90
2014,07,02,11,21,21.90
2014,07,02,11,22,21.90
2014,07,02,11,23,22.00
2014,07,02,11,24,22.00
2014,07,02,11,25,22.10
2014,07,02,11,26,22.10
2014,07,02,11,27,22.20
2014,07,02,11,28,22.20
2014,07,02,11,29,22.10
2014,07,02,11,30,22.10
2014,07,02,11,31,22.00
2014,07,02,11,32,22.00
2014,07,02,11,33,22.00
2014,07,02,11,34,22.00
2014,07,02,11,35,22.10
2014,07,02,11,36,22.10
2014,07,02,11,37,22.20
2014,07,02,11,38,22.20
2014,07,02,11,39,22.20
2014,07,02,11,40,22.20
2014,07,02,11,41,22.20
2014,07,02,11,42,22.20
2014,07,02,11,43,22.30
2014,07,02,11,44,22.40
2014,07,02,11,45,22.50
2014,07,02,11,46,22.50
2014,07,02,11,47,22.40
2014,07,02,11,48,22.50
2014,07,02,11,49,22.40
2014,07,02,11,50,22.40
2014,07,02,11,51,22.30
2014,07,02,11,52,22.30
2014,07,02,11,53,22.40
2014,07,02,11,54,22.40
2014,07,02,11,55,22.50
2014,07,02,11,56,22.50
2014,07,02,11,57,22.50
2014,07,02,11,58,22.40
2014,07,02,11,59,22.40
2014,07,02,12,00,22.40
2014,07,02,12,01,22.50
2014,07,02,12,02,22.50
2014,07,02,12,03,22.40
2014,07,02,12,04,22.30
2014,07,02,12,05,22.20
2014,07,02,12,06,22.00
2014,07,02,12,07,21.90
2014,07,02,12,08,21.80
2014,07,02,12,09,21.70
2014,07,02,12,10,21.60
2014,07,02,12,11,21.70
2014,07,02,12,12,21.90
2014,07,02,12,13,22.00
2014,07,02,12,14,22.10
2014,07,02,12,15,22.20
2014,07,02,12,16,22.40
2014,07,02,12,17,22.50
2014,07,02,12,18,22.50
2014,07,02,12,19,22.50
2014,07,02,12,20,22.50
2014,07,02,12,21,22.60
2014,07,02,12,22,22.60
2014,07,02,12,23,22.60
2014,07,02,12,24,22.50
2014,07,02,12,25,22.50
2014,07,02,12,26,22.40
2014,07,02,12,27,22.20
2014,07,02,12,28,22.10
2014,07,02,12,29,22.20
2014,07,02,12,30,22.30
2014,07,02,12,31,22.40
2014,07,02,12,32,22.50
2014,07,02,12,33,22.60
2014,07,02,12,34,22.70
2014,07,02,12,35,22.70
2014,07,02,12,36,22.80
2014,07,02,12,37,22.80
2014,07,02,12,38,22.80
2014,07,02,12,39,22.80
2014,07,02,12,40,22.80
2014,07,02,12,41,22.70
2014,07,02,12,42,22.70
2014,07,02,12,43,22.70
2014,07,02,12,44,22.70
2014,07,02,12,45,22.70
2014,07,02,12,46,22.80
2014,07,02,12,47,22.80
2014,07,02,12,48,22.80
2014,07,02,12,49,22.80
2014,07,02,12,50,22.80
2014,07,02,12,51,22.90
2014,07,02,12,52,22.90
2014,07,02,12,53,22.90
2014,07,02,12,54,23.00
2014,07,02,12,55,23.10
2014,07,02,12,56,23.10
2014,07,02,12,57,23.20
2014,07,02,12,58,23.20
2014,07,02,12,59,23.20
2014,07,02,13,00,23.20
2014,07,02,13,01,23.20
2014,07,02,13,02,23.10
2014,07,02,13,03,23.00
2014,07,02,13,04,22.90
2014,07,02,13,05,22.90
2014,07,02,13,06,22.90
2014,07,02,13,07,22.90
2014,07,02,13,08,22.90
2014,07,02,13,09,22.90
2014,07,02,13,10,22.90
2014,07,02,13,11,22.80
2014,07,02,13,12,22.80
2014,07,02,13,13,22.80
2014,07,02,13,14,22.70
2014,07,02,13,15,22.70
2014,07,02,13,16,22.70
2014,07,02,13,17,22.90
2014,07,02,13,18,22.90
2014,07,02,13,19,22.90
2014,07,02,13,20,23.10
2014,07,02,13,21,23.30
2014,07,02,13,22,23.50
2014,07,02,13,23,23.60
2014,07,02,13,24,23.60
2014,07,02,13,25,23.70
2014,07,02,13,26,23.70
2014,07,02,13,27,23.70
2014,07,02,13,28,23.80
2014,07,02,13,29,23.90
2014,07,02,13,30,23.90
2014,07,02,13,31,23.90
2014,07,02,13,32,23.90
2014,07,02,13,33,23.80
2014,07,02,13,34,23.70
2014,07,02,13,35,23.70
2014,07,02,13,36,23.70
2014,07,02,13,37,23.70
2014,07,02,13,38,23.70
2014,07,02,13,39,23.60
2014,07,02,13,40,23.60
2014,07,02,13,41,23.70
2014,07,02,13,42,23.70
2014,07,02,13,43,23.80
2014,07,02,13,44,23.80
2014,07,02,13,45,23.80
2014,07,02,13,46,23.70
2014,07,02,13,47,23.60
2014,07,02,13,48,23.60
2014,07,02,13,49,23.60
2014,07,02,13,50,23.60
2014,07,02,13,51,23.70
2014,07,02,13,52,23.70
2014,07,02,13,53,23.60
2014,07,02,13,54,23.60
2014,07,02,13,55,23.50
2014,07,02,13,56,23.50
2014,07,02,13,57,23.60
2014,07,02,13,58,23.60
2014,07,02,13,59,23.50
2014,07,02,14,00,23.40
2014,07,02,14,01,23.30
2014,07,02,14,02,23.30
2014,07,02,14,03,23.30
2014,07,02,14,04,23.30
2014,07,02,14,05,23.30
2014,07,02,14,06,23.20
2014,07,02,14,07,23.20
2014,07,02,14,08,23.30
2014,07,02,14,09,23.30
2014,07,02,14,10,23.30
2014,07,02,14,11,23.30
2014,07,02,14,12,23.30
2014,07,02,14,13,23.40
2014,07,02,14,14,23.40
2014,07,02,14,15,23.60
2014,07,02,14,16,23.60
2014,07,02,14,17,23.60
2014,07,02,14,18,23.70
2014,07,02,14,19,23.70
2014,07,02,14,20,23.70
2014,07,02,14,21,23.60
2014,07,02,14,22,23.50
2014,07,02,14,23,23.40
2014,07,02,14,24,23.40
2014,07,02,14,25,23.40
2014,07,02,14,26,23.50
2014,07,02,14,27,23.60
2014,07,02,14,28,23.60
2014,07,02,14,29,23.50
2014,07,02,14,30,23.60
2014,07,02,14,31,23.60
2014,07,02,14,32,23.60
2014,07,02,14,33,23.60
2014,07,02,14,34,23.70
2014,07,02,14,35,23.70
2014,07,02,14,36,23.80
2014,07,02,14,37,23.80
2014,07,02,14,38,23.80
2014,07,02,14,39,23.80
2014,07,02,14,40,23.80
2014,07,02,14,41,23.70
2014,07,02,14,42,23.80
2014,07,02,14,43,23.90
2014,07,02,14,44,23.90
2014,07,02,14,45,23.90
2014,07,02,14,46,23.90
2014,07,02,14,47,24.00
2014,07,02,14,48,24.10
2014,07,02,14,49,24.10
2014,07,02,14,50,24.10
2014,07,02,14,51,24.10
2014,07,02,14,52,24.10
2014,07,02,14,53,24.10
2014,07,02,14,54,24.20
2014,07,02,14,55,24.20
2014,07,02,14,56,24.10
2014,07,02,14,57,24.10
2014,07,02,14,58,24.10
2014,07,02,14,59,24.10
2014,07,02,15,00,24.10
2014,07,02,15,01,24.10
2014,07,02,15,02,24.10
2014,07,02,15,03,24.10
2014,07,02,15,04,24.00
2014,07,02,15,05,23.90
2014,07,02,15,06,23.90
2014,07,02,15,07,23.90
2014,07,02,15,08,23.90
2014,07,02,15,09,23.90
2014,07,02,15,10,23.80
2014,07,02,15,11,23.80
2014,07,02,15,12,23.80
2014,07,02,15,13,23.80
2014,07,02,15,14,23.70
2014,07,02,15,15,23.70
2014,07,02,15,16,23.60
2014,07,02,15,17,23.40
2014,07,02,15,18,23.30
2014,07,02,15,19,23.20
2014,07,02,15,20,23.20
2014,07,02,15,21,23.10
2014,07,02,15,22,23.30
2014,07,02,15,23,23.30
2014,07,02,15,24,23.30
2014,07,02,15,25,23.30
2014,07,02,15,26,23.30
2014,07,02,15,27,23.20
2014,07,02,15,28,23.20
2014,07,02,15,29,23.10
2014,07,02,15,30,23.00
2014,07,02,15,31,22.90
2014,07,02,15,32,22.90
2014,07,02,15,33,22.90
2014,07,02,15,34,22.90
2014,07,02,15,35,22.90
2014,07,02,15,36,22.90
2014,07,02,15,37,23.10
2014,07,02,15,38,23.10
2014,07,02,15,39,23.10
2014,07,02,15,40,23.10
2014,07,02,15,41,23.10
2014,07,02,15,42,23.10
2014,07,02,15,43,23.10
2014,07,02,15,44,23.00
2014,07,02,15,45,22.90
2014,07,02,15,46,22.90
2014,07,02,15,47,22.90
2014,07,02,15,48,23.00
2014,07,02,15,49,23.10
2014,07,02,15,50,23.20
2014,07,02,15,51,23.10
2014,07,02,15,52,23.10
2014,07,02,15,53,23.10
2014,07,02,15,54,23.10
2014,07,02,15,55,23.20
2014,07,02,15,56,23.30
2014,07,02,15,57,23.30
2014,07,02,15,58,23.20
2014,07,02,15,59,23.20
2014,07,02,16,00,23.20
2014,07,02,16,01,23.20
2014,07,02,16,02,23.10
2014,07,02,16,03,23.10
2014,07,02,16,04,23.10
2014,07,02,16,05,23.00
2014,07,02,16,06,22.90
2014,07,02,16,07,22.90
2014,07,02,16,08,22.90
2014,07,02,16,09,22.90
2014,07,02,16,10,22.90
2014,07,02,16,11,22.80
2014,07,02,16,12,22.80
2014,07,02,16,13,22.90
2014,07,02,16,14,22.90
2014,07,02,16,15,22.90
2014,07,02,16,16,22.90
2014,07,02,16,17,22.90
2014,07,02,16,18,22.90
2014,07,02,16,19,22.90
2014,07,02,16,20,22.80
2014,07,02,16,21,22.80
2014,07,02,16,22,22.80
2014,07,02,16,23,22.70
2014,07,02,16,24,22.80
2014,07,02,16,25,22.80
2014,07,02,16,26,22.70
2014,07,02,16,27,22.70
2014,07,02,16,28,22.60
2014,07,02,16,29,22.60
2014,07,02,16,30,22.60
2014,07,02,16,31,22.70
2014,07,02,16,32,22.70
2014,07,02,16,33,22.70
2014,07,02,16,34,22.70
2014,07,02,16,35,22.70
2014,07,02,16,36,22.70
2014,07,02,16,37,22.60
2014,07,02,16,38,22.60
2014,07,02,16,39,22.60
2014,07,02,16,40,22.60
2014,07,02,16,41,22.50
2014,07,02,16,42,22.50
2014,07,02,16,43,22.40
2014,07,02,16,44,22.40
2014,07,02,16,45,22.40
2014,07,02,16,46,22.40
2014,07,02,16,47,22.30
2014,07,02,16,48,22.30
2014,07,02,16,49,22.20
2014,07,02,16,50,22.20
2014,07,02,16,51,22.10
2014,07,02,16,52,22.20
2014,07,02,16,53,22.20
2014,07,02,16,54,22.20
2014,07,02,16,55,22.10
2014,07,02,16,56,22.10
2014,07,02,16,57,22.10
2014,07,02,16,58,22.10
2014,07,02,16,59,22.00
2014,07,02,17,00,22.00
2014,07,02,17,01,21.90
2014,07,02,17,02,21.90
2014,07,02,17,03,21.90
2014,07,02,17,04,21.80
2014,07,02,17,05,21.70
2014,07,02,17,06,21.80
2014,07,02,17,07,21.80
2014,07,02,17,08,21.90
2014,07,02,17,09,21.90
2014,07,02,17,10,21.90
2014,07,02,17,11,21.90
2014,07,02,17,12,21.90
2014,07,02,17,13,21.90
2014,07,02,17,14,21.80
2014,07,02,17,15,21.80
2014,07,02,17,16,21.90
2014,07,02,17,17,21.90
2014,07,02,17,18,21.90
2014,07,02,17,19,21.90